STARLINK-3809 (52851 NORAD) Tracking and Keplerian Element Data

This shows tracking and keplerian element data for the satellite.

Feedback or suggestion? Click here.




ElementValue
Catalog52851
NameSTARLINK-3809
Epoch Orbit1628
Epoch Day270.25001157
Epoch Year2022
RAAN277.9605
Inclination53.2129
Eccentricity0.0002263
Argument of Perigee38.6282
Mean Anonmoly154.7075
Mean Motion15.08847608
Decay Rate-0.00017308
L11 52851U 22062X 22270.25001157 -.00017308 00000+0 -10717-2 0 9995
L22 52851 53.2129 277.9605 0002263 38.6282 154.7075 15.08847608 16286

Live tracking and technical data element details for STARLINK-3809 (NORAD 52851). STARLINK-3809 can be tracked NOW for your location showing map with azimuth and elevation plus other details from your city location.

Track the satellite on the map from your city or location and see movement details for azimuth, elevation, latitude, longitude, range, height, and movement on the map or in text.







IsCatalogInMostPopularTable: catalog: 52851, numindb: 10
Update: records affected: 1



GetName: 52851 STARLINK-3809

Hit Count: updated at: Thu, 06 Oct 2022 04:47:51 GMT